www.pogodaiklimat.ru

Погода и климат >> Архив погоды >> Кувейт >> Minagish


ПОГОДА в Minagish

  • Прогноз погоды в Minagish
  • Монитор погоды в Minagish
  • Климат города

АРХИВ ПОГОДЫ в Minagish

Время (UTC), дата Ветер
(напр.,м/с)
 
Видим.   Явления Облачность Т
(С)
Тd
(С)
f
(%)
Тe
(С)
Тes
(С)
Комфортность P
(гПа)
Po
(гПа)
Тmin
(С)
Tmax
(С)
R
(мм)
R24
(мм)
S
(см)
00 8.12 Ю 3-4
{5}
н/о н/о +14.4 +11.3 82 +13 +13 1016.8 1017.0
03 8.12 Ю 5-5
{5}
н/о н/о +14.0 +10.0 77 +12 +12 1017.8 1018.0
06 8.12 Ю 7-9
{9}
н/о н/о +18.4 +8.8 54 +18 +18 1019.0 1019.0
12 8.12 ЮЗ 4-5
{10}
н/о н/о +24.8 +3.5 25 +24 +24 комфорт 1016.5 1017.0
15 8.12 Ю 2-2
{6}
н/о н/о +20.6 +7.7 43 +22 +22 комфорт 1017.8 1018.0
18 8.12 ЮВ 4-5
{6}
н/о н/о +17.0 +10.8 67 +17 +17 1019.4 1019.0
21 8.12 В 3-3
{6}
н/о н/о +14.7 +12.3 86 +14 +14 1019.1 1019.0 +13.6 +24.8
00 9.12 В 1-2
{6}
н/о н/о +14.4 +13.0 91 +15 +15 1018.9 1019.0
03 9.12 В 2-2
{2}
н/о н/о +14.6 +13.1 91 +14 +14 1019.4 1019.0
06 9.12 ЮВ 3-3
{3}
н/о н/о +19.1 +14.4 74 +21 +21 комфорт 1020.7 1021.0
09 9.12 ЮВ 4-5
{6}
н/о н/о +22.5 +11.1 48 +25 +25 комфорт 1019.2 1019.0
12 9.12 В 4-5
{6}
н/о н/о +22.6 +8.9 42 +24 +24 комфорт 1018.1 1018.0
15 9.12 СВ 3-4
{5}
н/о н/о +20.2 +12.9 63 +22 +22 комфорт 1019.0 1019.0
00 10.12 С 2-2
{4}
6000 м дымка н/о +15.1 +13.9 93 +15 +15 1019.0 1019.0
03 10.12 С 2-2
{3}
н/о н/о +14.3 +13.1 92 +14 +14 1018.8 1019.0
06 10.12 С 3-3
{3}
н/о н/о +17.2 +12.5 74 +17 +17 1020.0 1020.0
09 10.12 С 2-3
{4}
н/о н/о +19.9 +9.1 50 +22 +22 комфорт 1018.3 1018.0
12 10.12 С 3-5
{5}
н/о н/о +21.1 +8.8 45 +22 +22 комфорт 1017.4 1017.0
15 10.12 С 3-4
{6}
н/о н/о +18.6 +11.9 65 +19 +19 1019.3 1019.0
18 10.12 СЗ 2-2
{6}
н/о н/о +16.1 +12.9 81 +16 +16 1020.0 1020.0
21 10.12 СЗ 3-4
{5}
н/о н/о +14.6 +11.4 81 +14 +14 1020.2 1020.0 +14.2 +21.5
00 11.12 СЗ 3-3
{5}
н/о н/о +13.2 +11.4 89 +12 +12 1020.8 1021.0
03 11.12 С 4-5
{5}
н/о н/о +12.7 +10.9 89 +11 +11 1021.8 1022.0
06 11.12 СЗ 3-4
{6}
н/о н/о +15.1 +11.0 76 +14 +14 1023.5 1024.0
09 11.12 С 5-7
{8}
н/о н/о +20.4 +6.7 41 +21 +21 комфорт 1021.6 1022.0
12 11.12 С 6-9
{9}
н/о н/о +21.3 +5.6 36 +22 +22 комфорт 1020.7 1021.0
18 11.12 С 4-5
{9}
н/о н/о +14.7 +8.9 68 +14 +14 1022.6 1023.0
21 11.12 З 3-4
{5}
н/о н/о +12.7 +9.9 83 +11 +11 1023.0 1023.0 +12.4 +21.8
00 12.12 З 3-4
{5}
н/о н/о +11.6 +9.6 88 +10 +10 1022.8 1023.0
03 12.12 З 2-3
{5}
н/о н/о +11.1 +8.8 86 +10 +10 1023.3 1023.0
06 12.12 З 3-3
{5}
н/о н/о +15.9 +9.8 67 +16 +16 1024.2 1024.0
09 12.12 С 6-9
{9}
н/о н/о +20.8 +8.0 44 +22 +22 комфорт 1021.8 1022.0
12 12.12 С 5-8
{9}
н/о н/о +21.8 +7.6 40 +23 +23 комфорт 1020.7 1021.0
15 12.12 СВ 2-3
{7}
н/о н/о +17.3 +8.7 57 +18 +18 1021.6 1022.0
03 13.12 ЮЗ 3-3
{3}
н/о н/о +11.5 +9.4 87 +10 +10 1022.7 1023.0
06 13.12 Ю 2-3
{4}
н/о н/о +16.5 +10.2 66 +17 +17 1024.1 1024.0
09 13.12 ЮВ 3-4
{4}
н/о н/о +21.8 +8.5 42 +23 +23 комфорт 1022.0 1022.0
12 13.12 В 4-5
{7}
н/о н/о +21.5 +8.6 44 +23 +23 комфорт 1021.1 1021.0
15 13.12 В 4-5
{6}
н/о н/о +17.5 +10.3 63 +17 +17 1022.9 1023.0
18 13.12 В 3-3
{6}
н/о н/о +15.5 +12.2 81 +15 +15 1023.8 1024.0
21 13.12 З 2-2
{3}
н/о н/о +14.6 +12.4 87 +15 +15 1023.3 1023.0 +11.0 +22.6
00 14.12 СЗ 3-3
{3}
5000 м дымка н/о +13.2 +11.9 92 +12 +12 1023.6 1024.0
03 14.12 СЗ 3-3
{4}
н/о н/о +13.4 +11.3 87 +12 +12 1024.5 1025.0
06 14.12 СЗ 3-5
{5}
н/о н/о +15.9 +12.1 78 +15 +15 1026.1 1026.0
09 14.12 С 5-7
{7}
н/о н/о +21.1 +11.3 54 +23 +23 комфорт 1023.9 1024.0
12 14.12 С 6-8
{9}
н/о н/о +21.8 +10.0 47 +23 +23 комфорт 1023.1 1023.0

 

Местоположение метеостанции Minagish (Кувейт): широта 29.07 долгота 47.53 высота над уровнем моря 189 м.

В архиве по умолчанию представлена погода в Minagish за последнюю неделю. Архивные данные за месяц целиком и за предыдущие месяцы, начиная с января 2011 года, Вы можете получить, выбрав интересующий диапазон дат из раскрывающегося списка и нажав кнопку "Ввод!".


*Определитесь, кто Вы:
робот инопланетянин человек

Внимание! Время в таблицах - всемирное. Для получения местного времени необходимо прибавить поправку, которая в Minagish равна 3 ч.

Смотрите также архив погоды в соседних городах и на ближайших метеорологических станциях:

Погода в Sulaibiya (Кувейт) (29 км)
Погода в Jahra (Кувейт) (31 км)
Погода в Kuwait (Кувейт) (46 км)
Погода в Experimental Farm (Кувейт) (47 км)
Погода в Abraque Al Habari (Кувейт) (57 км)
Погода в Kuwait City (Кувейт) (58 км)
Погода в Jal Aliyah (Кувейт) (60 км)
Погода в Al-Shuaiba (Кувейт) (63 км)
Погода в Juluiah Port (Кувейт) (76 км)
Погода в Al-Wafra (Кувейт) (77 км)

Пояснения к столбцам:

Ветер - указаны скорость ветра в м/с - средняя за 10 мин, порывы в срок и между сроками (в фигурных скобках) и направление, откуда дует ветер: С - северный, СВ - северо-восточный, В - восточный, ЮВ - юго-восточный, Ю - южный, ЮЗ - юго-западный, З - западный, СЗ - северо-западный.
Видимость - горизонтальная дальность видимости в метрах или километрах. При видимости от 1 до 10 км при отсутствии осадков обычно наблюдается дымка, при ухудшении видимости до 1 км и менее - туман. В сухую погоду видимость может ухудшаться дымом, пылью или мглою.
Явления - указаны атмосферные явления, наблюдавшиеся в срок или в последний час перед сроком; фигурными скобками обозначены явления, наблюдавшиеся между сроками (за 1-3 часа до срока); квадратными скобками обозначены град или гололедные отложения с указанием их диаметра в мм.
Облачность - указаны через наклонную черту общая и нижняя облачность в баллах и высота нижней границы облаков в метрах; квадратными скобками обозначены формы облаков: Ci - перистые, Cs - перисто-слоистые, Cc - перисто-кучевые, Ac - высококучевые, As - высокослоистые, Sc - слоисто-кучевые, Ns - слоисто-дождевые, Cu - кучевые, Cb - кучево-дождевые. Подробнее классификацию облаков см. в Атласе облаков (PDF).
T - Температура воздуха - температура, измеренная на высоте 2 м над землей.
Td - Температура точки росы - температура, при понижении до которой содержащийся в воздухе водяной пар достигнет насыщения.
f - Относительная влажность воздуха - влажноcть воздуха, измеренная на высоте 2 м над землей.
Te - Эффективная температура - температура, которую ощущает одетый по сезону человек в тени. Характеристика душности погоды. При расчете учитывается влияние влажности воздуха и скорости ветра на теплоощущения человека.
Tes - Эффективная температура на солнце - температура, которую ощущает человек, с поправкой на солнечный нагрев. Характеристика знойности погоды. Зависит от высоты солнца над горизонтом, облачности и скорости ветра. Ночью, в пасмурную погоду, а также при ветре 12 м/с и более поправка равна нулю.
P - Атмосферное давление - приведенное к уровню моря атмосферное давление.
Po - Атмосферное давление - измеренное на уровне метеостанции атмосферное давление.
Tmin - Минимальная температура - минимум температуры воздуха на высоте 2 м над землей.
Tmax - Максимальная температура - максимум температуры воздуха на высоте 2 м над землей.
R - Количество осадков - Количество выпавших осадков за период времени, мм. При наведении курсора мыши на число - период времени, за который выпало указанное количество осадков.
R24 - Количество осадков - Количество выпавших осадков за 24 часа, мм.
S - Снежный покров - Высота снежного покрова, см. При наведении курсора мыши на число - состояние снежного покрова и степень покрытия местности в баллах.